Regional Weather Roundup
Issued by NWS

Home | Current Version | Previous Version | Text Only | Print | Product List | Glossary On
Versions: 1 2 3 4 5 6 7 8 9 10 11 12 13 14 15 16 17 18 19 20 21 22 23 24 25 26 27 28
000
ASUS42 KTBW 290617
RWRFL
FLORIDA REGIONAL WEATHER ROUNDUP
NATIONAL WEATHER SERVICE TAMPA BAY RUSKIN FL
200 AM EDT WED MAR 29 2017

NOTE: "FAIR" INDICATES FEW OR NO CLOUDS BELOW 12,000 FEET WITH NO
SIGNIFICANT WEATHER AND/OR OBSTRUCTIONS TO VISIBILITY.

FLZ001>010-012>015-112-114-115-290700-
PANHANDLE FLORIDA

CITY           SKY/WX    TMP DP  RH WIND       PRES   REMARKS
PENSACOLA      CLEAR     69  66  90 S6        29.98F
PENSACOLA NAS  CLEAR     68  65  90 S5        29.98F
MILTON NAS     LGT RAIN  65  65 100 SE5       29.99F FOG
CRESTVIEW      CLOUDY    66  65  96 CALM      30.01F
DUKE FIELD     FOG       64  63  94 CALM      29.99F VSB 3/4
VALPARAISO     CLEAR     69  67  93 CALM      30.00F
MARY ESTHER    CLEAR     70  68  93 CALM      29.98F
PANAMA CITY    FAIR      63  62  97 CALM      30.01S FOG
TYNDALL AFB    FOG       64  64 100 CALM      30.01F VSB 7/8
APALACHICOLA   CLEAR     65  65 100 CALM      30.02S

STATION/POSITION SKY/WX   TEMP    WIND        PRES    WAVE   SWELL
                          AIR SEA DIR/SP/G            HT/PER HT/PER
                          (F)     (DEG/KT/KT) (MB)    (FT/S) (FT/S)
30.1N   87.6W              71 71  170/  6/  8 1015.1F   2/ 5   2/ 5
29.2N   88.2W              73 73  150/ 12/ 14 1014.9F   3/ 4
28.8N   86.0W              72 72              1016.5F   2/ 6   2/ 6
PANAMA CITY BEAC              73  150/  4/  5 1016.5F
TOWER C                    69     270/  3/  4 1017.1S
28.5N   84.5W              70 73     CALM     1016.4F   1/ 6   2/ 6

$$
FLZ011-016>038-118-127-128-134-139-239-290700-
NORTH FLORIDA

CITY           SKY/WX    TMP DP  RH WIND       PRES   REMARKS
MARIANNA       CLOUDY    70  68  93 W9        30.01F
TALLAHASSEE    CLEAR     64  62  93 CALM      30.02S
PERRY          FOG       63  62  97 CALM      30.02F VSB 3/4
CROSS CITY     CLEAR     55  54  94 CALM      30.02F
LAKE CITY      FAIR      61  61 100 CALM      30.02S
GAINESVILLE    CLEAR     59  55  87 W3        30.02F
WILLISTON      CLEAR     59  57  94 CALM      30.03F
PALATKA        FAIR      59  59 100 CALM      30.03S
MAYPORT NAS    CLEAR     68  61  78 W5        30.00F
JACKSONVILLE   CLEAR     64  59  83 W5        30.00F
JAX NAS        CLEAR     69  58  67 CALM      30.01F
FERNANDINA BEA FAIR      70  61  73 SW8       29.99S
ST AUGUSTINE   CLEAR     66  59  78 SW3       30.02F

STATION/POSITION SKY/WX   TEMP    WIND        PRES    WAVE   SWELL
                          AIR SEA DIR/SP/G            HT/PER HT/PER
                          (F)     (DEG/KT/KT) (MB)    (FT/S) (FT/S)
SHELL POINT      NOT AVBL
KEATON BEACH               70     280/ 11/ 12 1016.1F
CEDAR KEY                  70     290/  3/  4 1017.2S
FERNANDINA                    69  220/  1/  3 1016.5F
30.7N   81.3W                 66                N/A     3/11   2/11
MAYPORT                       67  250/  4/  5 1016.2F
31.4N   80.9W              66 63  210/ 10/ 12 1015.4    3/11   3/11
ST AUGUSTINE               67 68  220/  4/  5 1017.3F

$$
FLZ040-043>046-052-053-057-058-063-144-290700-
INTERIOR CENTRAL FLORIDA

CITY           SKY/WX    TMP DP  RH WIND       PRES   REMARKS
OCALA          PTCLDY    61  55  82 CALM      30.03S
THE VILLAGES     N/A     61  59  94 CALM      29.94F
LEESBURG       CLEAR     66  61  84 NW5       30.04F
SANFORD        CLEAR     70  57  63 S7        30.02F
ORLANDO EXEC   CLEAR     70  59  68 S6        30.02F
ORLANDO INTL   CLEAR     65  58  78 S6        30.03F
KISSIMMEE      CLEAR     67  59  75 CALM      30.04F
WINTER HAVEN   CLEAR     70  57  63 E5        30.04F
LAKELAND       CLEAR     63  61  94 CALM      30.03F
BARTOW         FAIR      64  57  77 E3        30.03F
OKEECHOBEE     CLEAR    N/A N/A N/A CALM      30.04S

$$
FLZ041-047-054-059-064-141-147-290700-
EAST CENTRAL FLORIDA

CITY           SKY/WX    TMP DP  RH WIND       PRES   REMARKS
DAYTONA BEACH  CLEAR     63  59  87 SW5       30.03S
DELAND         CLEAR     66  59  77 S3        30.02F
JFK SPACE CTR  CLEAR     68  64  87 SW6       30.01F
CAPE CANAVERAL CLEAR     68  63  83 W6        30.01F
PATRICK AFB    CLEAR     69  65  87 W8        30.02F
MELBOURNE      CLEAR     66  63  90 W7        30.03S
VERO BEACH     CLEAR     64  62  93 CALM      30.02F
FT PIERCE      CLEAR     60  59  96 CALM      30.02F
STUART         CLEAR     72  63  73 S5        30.03F

STATION/POSITION SKY/WX   TEMP    WIND        PRES    WAVE   SWELL
                          AIR SEA DIR/SP/G            HT/PER HT/PER
                          (F)     (DEG/KT/KT) (MB)    (FT/S) (FT/S)
TRIDENT PIER                  74  250/  5/  7 1018.0F
28.4N   80.5W                 72                N/A     2/10   2/11
27.5N   80.2W                 74                N/A     4/11   2/11

$$
FLZ050-056-061-142-242-148-248-149-249-151-251-155-255-
160-260-290700-
WEST CENTRAL FLORIDA

CITY           SKY/WX    TMP DP  RH WIND       PRES   REMARKS
CRYSTAL RIVER  FAIR      55  55 100 CALM      30.03S
INVERNESS      FAIR      59  59 100 CALM      30.04S
BROOKSVILLE    CLEAR     61  61 100 CALM      30.04S
CLEARWATER AIR FAIR      64  64 100 CALM      30.02S
ST PETE CLEARW CLEAR     69  65  86 E5        30.02F
TAMPA INTL     CLEAR     70  64  81 E5        30.03F
TAMPA EXEC     CLEAR     63  61  94 CALM      30.04F
PLANT CITY     CLEAR     64  63  94 CALM      30.05F
MACDILL AFB    CLEAR     65  65  99 NE3       30.02F
PETER O KNIGHT CLEAR     70  66  88 NE5       30.03F
ST PETERSBURG  CLEAR     70  67  90 E12       30.01F
SARASOTA       CLEAR     66  63  90 E3        30.01F
VENICE           N/A     66  64  94 CALM      30.03F

STATION/POSITION SKY/WX   TEMP    WIND        PRES    WAVE   SWELL
                          AIR SEA DIR/SP/G            HT/PER HT/PER
                          (F)     (DEG/KT/KT) (MB)    (FT/S) (FT/S)
27.3N   84.2W                 71                N/A     1/ 6
CLEARWATER BEACH              72   70/  5/  9 1016.7F
MIDDLE TAMPA BAY                  100/  8/ 10 1017.0F
VENICE                     67 72   80/  1/  2 1016.3F

$$
FLZ066-069-070-075>078-162-262-165-265-290700-
SOUTHWEST FLORIDA AND KEYS

CITY           SKY/WX    TMP DP  RH WIND       PRES   REMARKS
PUNTA GORDA    CLEAR     60  57  89 NE5       30.03F
FT MYERS       CLEAR     70  63  78 NE3       30.01F
SOUTHWEST INTL CLEAR     66  61  84 CALM      30.01F
NAPLES         CLEAR     67  63  87 CALM      30.01S
IMMOKALEE      MOCLDY    57  57 100 CALM      30.01S
MARATHON       CLEAR     75  68  78 E3        30.01F
KEY WEST NAS   CLEAR     73  69  87 NE5       30.02F
KEY WEST INTL  CLEAR     74  70  87 NE6       30.02F

STATION/POSITION SKY/WX   TEMP    WIND        PRES    WAVE   SWELL
                          AIR SEA DIR/SP/G            HT/PER HT/PER
                          (F)     (DEG/KT/KT) (MB)    (FT/S) (FT/S)
NAPLES                        74              1016.2F
26.0N   85.6W              75 78  110/ 12/ 14 1016.1F   2/ 5   2/ 8
DRY TORTUGAS               74      90/ 11/ 13 1016.2F
SAND KEY                   76     120/ 11/ 13 1016.9F
LONG KEY                   76 78  120/  6/  7 1017.1F
MOLASSES REEF              76 78  120/  6/  6 1017.2

$$
FLZ067-068-071>074-168-172>174-290700-
SOUTHEAST FLORIDA

CITY           SKY/WX    TMP DP  RH WIND       PRES   REMARKS
W PALM BEACH   PTCLDY    73  61  65 E8        30.03F
FT LAUDER-EXEC CLEAR     74  64  71 E3        30.02F
FT LAUDERDALE  PTCLDY    74  65  73 SE5       30.01F
POMPANO BEACH  MOCLDY    75  66  73 SE6       30.02F
PEMBROKE PINES CLEAR     73  64  73 SE3       30.03F
OPA LOCKA      MOCLDY    74  65  73 S5        30.03S
MIAMI          PTCLDY    74  66  76 SE3       30.02F
WEST KENDALL   CLEAR     72  66  81 CALM      30.02F
HOMESTEAD      CLEAR     70  68  96 CALM      30.01F

STATION/POSITION SKY/WX   TEMP    WIND        PRES    WAVE   SWELL
                          AIR SEA DIR/SP/G            HT/PER HT/PER
                          (F)     (DEG/KT/KT) (MB)    (FT/S) (FT/S)
PORT EVERGLADES            76     140/  5/  8 1016.7F
LAKE WORTH                        120/ 11/ 12   N/A
FOWEY ROCKS                75 77  120/  8/  9 1017.0F
SETTLEMENT POINT           73     110/  7/  9 1016.9F

$$





USA.gov is the U.S. government's official web portal to all federal, state and local government web resources and services.